Terug naar catalogus

COSMOS 1635

ActiefMilitairLEO
NORAD 15617·PAYLOAD·🇷🇺 Russia

Gelanceerd Mar 21, 1985 vanaf Plesetsk Cosmodrome

Loading…

Volgende Passages (komende 24 uur)

TLE

VersSource: Space-Track

Epoch: Sep 14, 2026, 14:52 UTC

1 15617U 85023A   26257.61986125  .00000009  00000-0  17551-3 0  9999
2 15617  74.0552 140.0214 0024308  24.3118 349.3520 12.43258902882834

Volg COSMOS 1635 in realtime met AllMySat

Download on the App Store